Airfield :
LOGIN :

Register | Disclaimer

   EN    FR    IT 

 










Legend :    VFR   Marginal VFR   IFR   Intensive IFR   Very Intensive IFR
Visi :
Ceiling :
>= 8 km
>= 3000ft
5 to 8 km
1000 to 3000 ft
1500m to 5 km
500 to 1000 ft
800 to 1500m
200 to 500 ft
< 800m
< 200 ft
Symbols :   Thunderstorms  Fog  Heavy snow  Heavy precipitations  Wind > 20 kt
SIGMETs :     Misc.  Thunderstorms  Icing  Turbulence  Mountain Waves  Volcanic Ashes







- Airport Elevation : 38 ft
- IATA code : BOH
- Download approach charts


EGHH - Bournemouth

CURRENT METAR :
  • 162150Z 31008KT CAVOK 03/02 Q1023

EXPIRED METARs :
  • 162120Z 30007KT 270V350 CAVOK 04/03 Q1023
  • 162050Z 30007KT 270V330 CAVOK 04/03 Q1023
  • 162020Z 29007KT CAVOK 02/02 Q1022
  • 161950Z 29005KT CAVOK 02/01 Q1022

TAF TAF EGHH
Valid from the 16 at 21:00 until the 17 at 06:00 UTC


162002Z 1621/1706 30004KT 9999 FEW035
BECMG 1700/1703 3000 BR
PROB30 1702/1706 0300 FG FZFG VV///
ATIS : +44 1202 364 151
Met : +44 1202 364 158 (TAF)
No reported NOTAMs for that airfield.



MET'MAP, your aeronautical weather chart ! - Copyright ORBIFLY December 2007 - Disclaimer

ORBIFLY MET'MAP TEAM :

Programming & Development : Alexandra Zaïnal
Concept & Development : Baudouin d'Aumeries
Co-Development & Prog : Marc-Olivier Méhu
Technical & hardware support : Manuel Goepfert

Contact : metmap@orbifly.com




SOURCES & CREDITS :

   NOAA